Tracking 20241 objects as of 26-Jan-2020
HD Live streaming from Space Station
objects crossing your sky now

DIADEME 2

Track DIADEME 2 now!
10-day predictions
DIADEME 2 is classified as:


NORAD ID: 2680
Int'l Code: 1967-014A
Perigee: 585.1 km
Apogee: 1,662.1 km
Inclination: 39.4 °
Period: 107.6 minutes
Semi major axis: 7494 km
RCS: 0.6374 m2 (medium)
Launch date: February 15, 1967
Source: France (FR)
Launch site: HAMMA GUIRA SPACE TRACK RANGE (HGSTR)
aabbcc
Your satellite tracking list
Your tracking list is empty




NASA's NSSDC Master Catalog

Two Line Element Set (TLE):
1  2680U 67014A   20026.13998385  .00000001  00000-0  38620-4 0  9994
2  2680  39.4417   9.7214 0718582  94.5324 273.7777 13.38074586563455
Source of the keplerian elements: AFSPC